Burley Municipal Airport Burley US
ICAO: KBYI
IATA: BYI
Category: Medium
Scheduled Services: No

Elevation: 4150 ft
TransAlt. 18000 ft.

Airport Communications:
TWIN FALLS APP/DEP:126.7
ASOS:135.575
SALT LAKE CITY CNTR:118.05
CTAF:122.9
BOISE RDO:122.05

KBYI Zoom In..

If Map Doesn't Load, Click Here

Runways:

(A) RW 02 length 4092 ft width 80 ft
---- / hdg 22

(B) RW 06 length 4072 ft width 75 ft
---- / hdg 64

(C) RW 20 length 4092 ft width 80 ft
---- / hdg 202

(D) RW 24 length 4072 ft width 75 ft
---- / hdg 244

Location; KBYI
Day. 23 / Time. 20.53 Zulu
* Altimeter: 29.97
* Temperature: 20° c. 68°f.
* Wind from: 290° Speed 08 kn.
Dewpoint: 06° c.
Visibility: 10 Statute Miles.
Clouds: Clear (automated report).

KBYI 232053Z AUTO 29008KT 10SM CLR 20/06 A2997 RMK AO2 SLP117 T02000056 58012


Wind From 290°
Speed 08 kn.

 
 
jpsmedia.com for Web Design worldairports.se 2018   terms of use